Weather History for KCLE - April, 2013

Change the Weather History Date:

Saturday, April 27, 2013

  Actual Average Record
Temperature  
Mean Temperature 54 °F 54 °F  
Max Temperature 69 °F 64 °F 86 °F (1957)
Min Temperature 39 °F 44 °F 27 °F (1971)
Degree Days  
Heating Degree Days 11 12  
Month to date heating degree days 459 436  
Since 1 July heating degree days 5598 5479  
Cooling Degree Days 0 1  
Month to date cooling degree days 2 7  
Year to date cooling degree days 2 8  
Growing Degree Days 4 (Base 50)    
Moisture  
Dew Point 35 °F    
Average Humidity 51    
Maximum Humidity 73    
Minimum Humidity 28    
Precipitation  
Precipitation 0.00 in 0.10 in 1.53 in (1973)
Month to date precipitation 3.25 3.17  
Year to date precipitation 9.97 11.16  
Snow  
Snow 0.00 in 0.00 in - ()
Month to date snowfall 0.3 3.2  
Since 1 July snowfall 51.7 68.0  
Snow Depth 0.00 in    
Sea Level Pressure  
Sea Level Pressure 30.30 in    
Wind  
Wind Speed 6 mph (ESE)    
Max Wind Speed 16 mph    
Max Gust Speed 18 mph    
Visibility 10 miles    
Events      
T = Trace of Precipitation, MM = Missing Value Source: NWS Daily Summary

Daily Weather History Graph

Daily Weather History Graph

Search for Another Location

Airport or City:

Trip Planner

Search our weather history database for the weather conditions in past years. The results will help you decide how hot, cold, wet, or windy it might be!

Date:

Astronomy

Apr. 27, 2013 Rise Set
Actual Time 6:29 AM EDT 8:20 PM EDT
Civil Twilight 5:59 AM EDT 8:50 PM EDT
Nautical Twilight 5:23 AM EDT 9:27 PM EDT
Astronomical Twilight 4:44 AM EDT 10:06 PM EDT
Moon 10:50 PM EDT (4/27) 7:46 AM EDT (4/27)
Length of Visible Light 14h 50m
Length of Day
13h 51m
Waning Gibbous, 95% of the Moon is Illuminated
Apr 27
Waning Gibbous
May 2
Last Quarter
May 9
New
May 18
First Quarter
May 25
Full

Hourly Weather History & Observations

Time (EDT) Temp. Windchill Dew Point Humidity Pressure Visibility Wind Dir Wind Speed Gust Speed Precip Events Conditions
12:51 AM 46.0 °F - 30.9 °F 56% 30.42 in 10.0 mi Calm Calm - N/A   Partly Cloudy
1:51 AM 41.0 °F 39.0 °F 33.1 °F 73% 30.41 in 10.0 mi SE 3.5 mph - N/A   Partly Cloudy
2:51 AM 42.1 °F - 33.1 °F 70% 30.39 in 10.0 mi Calm Calm - N/A   Clear
3:51 AM 41.0 °F 38.0 °F 33.1 °F 73% 30.39 in 10.0 mi South 4.6 mph - N/A   Clear
4:51 AM 41.0 °F 39.0 °F 33.1 °F 73% 30.39 in 10.0 mi SE 3.5 mph - N/A   Clear
5:51 AM 43.0 °F 39.5 °F 30.9 °F 62% 30.38 in 10.0 mi SSE 5.8 mph - N/A   Clear
6:51 AM 41.0 °F 36.4 °F 30.9 °F 67% 30.39 in 10.0 mi SSE 6.9 mph - N/A   Partly Cloudy
7:51 AM 48.0 °F - 34.0 °F 58% 30.40 in 10.0 mi SSE 8.1 mph - N/A   Partly Cloudy
8:51 AM 54.0 °F - 34.0 °F 47% 30.39 in 10.0 mi South 6.9 mph - N/A   Partly Cloudy
9:51 AM 59.0 °F - 33.1 °F 38% 30.37 in 10.0 mi South 11.5 mph - N/A   Clear
10:51 AM 61.0 °F - 34.0 °F 36% 30.35 in 10.0 mi SSE 6.9 mph - N/A   Clear
11:51 AM 64.0 °F - 32.0 °F 30% 30.34 in 10.0 mi SE 5.8 mph - N/A   Clear
12:51 PM 66.0 °F - 32.0 °F 28% 30.31 in 10.0 mi East 4.6 mph - N/A   Clear
1:51 PM 68.0 °F - 35.1 °F 30% 30.28 in 10.0 mi Variable 6.9 mph - N/A   Mostly Cloudy
2:51 PM 64.9 °F - 37.9 °F 37% 30.27 in 10.0 mi NNE 13.8 mph - N/A   Overcast
3:51 PM 63.0 °F - 36.0 °F 37% 30.26 in 10.0 mi NNE 10.4 mph - N/A   Overcast
4:51 PM 62.1 °F - 36.0 °F 38% 30.24 in 10.0 mi NNE 13.8 mph - N/A   Overcast
5:51 PM 60.1 °F - 35.1 °F 39% 30.22 in 10.0 mi NNE 11.5 mph - N/A   Mostly Cloudy
6:51 PM 57.0 °F - 35.1 °F 44% 30.21 in 10.0 mi North 9.2 mph - N/A   Overcast
7:51 PM 54.0 °F - 36.0 °F 51% 30.20 in 10.0 mi North 5.8 mph - N/A   Overcast
8:51 PM 52.0 °F - 37.0 °F 57% 30.18 in 10.0 mi NNE 3.5 mph - N/A   Mostly Cloudy
9:51 PM 52.0 °F - 37.9 °F 59% 30.17 in 10.0 mi Calm Calm - N/A   Mostly Cloudy
10:51 PM 48.9 °F - 39.0 °F 69% 30.15 in 10.0 mi Calm Calm - N/A   Mostly Cloudy
11:51 PM 51.1 °F - 39.0 °F 63% 30.13 in 10.0 mi ESE 3.5 mph - N/A   Mostly Cloudy